This demonstration page uses our WeatherBlox Daily Observations layout. Learn more.

Left ArrowRight Arrow

39.08367, -84.50855

Hourly Observations for August 20, 2019

Temp ( °F °C ) Dew Point ( °F °C ) Humidity (%) Winds ( mph kmh ) Pressure ( in mb ) Visibility ( mi km ) Precip ( " mm )
12:53 am 00:53 Mostly Clear 75 23.9 73 22.8 94 94 NNE 3 6 30.03 1017 9 14 N/A
1:53 am 01:53 Mostly Clear 75 23.9 72 22.2 90 90 N N/A 30.03 1017 9 14 N/A
2:53 am 02:53 Clear 74 23.3 73 22.8 97 97 N N/A 30.03 1017 8 13 N/A
3:53 am 03:53 Clear 72 22.2 71 21.7 97 97 N N/A 30.02 1017 7 11 N/A
4:45 am 04:45 Clear with Mist and Fog 71 21.7 71 21.7 100 100 N N/A 30.04 1017 2 3 N/A
4:53 am 04:53 Clear with Mist and Fog 71 21.7 71 21.7 100 100 N N/A 30.03 1017 1 2 N/A
5:06 am 05:06 Clear with Mist and Fog 72 22.2 71 21.7 97 97 NNW 3 6 30.03 1017 3 5 N/A
5:53 am 05:53 Clear with Mist and Fog 70 21.1 70 21.1 100 100 N N/A 30.05 1018 4 6 N/A
6:53 am 06:53 Clear with Mist and Fog 71 21.7 70 21.1 96 96 NE 5 7 30.04 1017 6 10 N/A
7:53 am 07:53 Sunny with Mist and Fog 74 23.3 72 22.2 94 94 N N/A 30.04 1017 6 10 N/A
8:53 am 08:53 Sunny 76 24.4 73 22.8 91 91 N N/A 30.03 1017 9 14 N/A
9:53 am 09:53 Sunny 81 27.2 74 23.3 79 79 N N/A 30.06 1018 10 16 N/A
10:53 am 10:53 Partly Cloudy 85 29.4 76 24.4 75 75 SSW 3 6 30.06 1018 10 16 N/A
11:53 am 11:53 Sunny 88 31.1 75 23.9 66 66 SSW 6 9 30.05 1018 10 16 N/A
12:53 pm 12:53 Partly Cloudy 89 31.7 74 23.3 61 61 SSW 8 13 30.03 1017 10 16 N/A
1:53 pm 13:53 Mostly Sunny 88 31.1 76 24.4 68 68 S 6 9 30.01 1016 10 16 N/A
2:37 pm 14:37 Partly Cloudy with Thunderstorms 86 30 77 25 75 75 W 6 9 30.00 1016 10 16 N/A
2:53 pm 14:53 Partly Cloudy with Thunderstorms 88 31.1 73 22.8 61 61 VRB 3 6 30.01 1016 10 16 N/A
3:11 pm 15:11 Partly Cloudy with Thunderstorms 87 30.6 75 23.9 67 67 NNE 13 20 29.99 1016 10 16 N/A
3:21 pm 15:21 Partly Cloudy 87 30.6 74 23.3 65 65 NE 10 17 29.98 1015 10 16 N/A
3:53 pm 15:53 Partly Cloudy with Thunderstorms 83 28.3 75 23.9 77 77 NE 9 15 30.00 1016 10 16 N/A
4:06 pm 16:06 Partly Cloudy with Thunderstorms 81 27.2 72 22.2 74 74 undefined N/A 30.03 1017 2 3 N/A
4:08 pm 16:08 Mostly Cloudy with Thunderstorms 80 26.7 70 21.1 71 71 W 14 22 30.03 1017 3 5 0.00 0.00
4:18 pm 16:18 Mostly Cloudy with Thunderstorms 75 23.9 73 22.8 94 94 W 14 22 30.06 1018 3 5 0.29 7.37
4:21 pm 16:21 Mostly Cloudy with Thunderstorms 75 23.9 73 22.8 94 94 W 14 22 30.05 1018 2 3 0.33 8.38
4:29 pm 16:29 Mostly Cloudy with Thunderstorms 73 22.8 71 21.7 94 94 NNE 15 24 30.01 1016 2 3 0.43 10.92
4:36 pm 16:36 Mostly Cloudy with Thunderstorms 73 22.8 70 21.1 90 90 NNE 10 17 30.02 1017 3 5 0.46 11.68
4:53 pm 16:53 Mostly Cloudy with Thunderstorms 73 22.8 69 20.6 87 87 SE 6 9 30.03 1017 3 5 0.46 11.68
5:00 pm 17:00 Partly Cloudy 73 22.8 68 20 84 84 N 6 9 30.03 1017 10 16 0.00 0.00
5:18 pm 17:18 Mostly Cloudy with Thunderstorms 73 22.8 67 19.4 81 81 NW 17 28 30.05 1018 10 16 0.00 0.00
5:53 pm 17:53 Partly Cloudy with Thunderstorms 73 22.8 68 20 84 84 W 10 17 30.05 1018 10 16 0.00 0.00
6:05 pm 18:05 Partly Cloudy with Light Rain 75 23.9 68 20 79 79 W 9 15 30.03 1017 10 16 0.00 0.00
6:53 pm 18:53 Sunny 75 23.9 69 20.6 82 82 NW 8 13 30.00 1016 10 16 0.01 0.25
7:53 pm 19:53 Sunny 73 22.8 69 20.6 87 87 SSE 8 13 29.97 1015 10 16 N/A
8:53 pm 20:53 Clear 71 21.7 69 20.6 94 94 N N/A 29.96 1015 10 16 N/A
9:53 pm 21:53 Clear 70 21.1 68 20 93 93 N N/A 29.95 1014 10 16 N/A
10:53 pm 22:53 Clear 69 20.6 68 20 96 96 N N/A 29.97 1015 10 16 N/A
11:12 pm 23:12 Clear with Mist and Fog 68 20 68 20 100 100 N N/A 29.98 1015 2 2 N/A
11:21 pm 23:21 Clear with Fog 69 20.6 68 20 96 96 WSW 3 6 29.99 1015 1 1 N/A
11:34 pm 23:34 Clear with Mist and Fog 68 20 67 19.4 96 96 N N/A 30.00 1016 2 3 N/A
11:41 pm 23:41 Clear 68 20 68 20 100 100 N N/A 30.00 1016 10 16 N/A
11:53 pm 23:53 Clear 69 20.6 68 20 96 96 N N/A 30.00 1016 10 16 0.00 0.00

Powered by AerisWeather